Regional Weather Roundup
Issued by NWS Cleveland, OH

Home | Current Version | Previous Version | Text Only | Print | Product List | Glossary Off
Versions: 1 2 3 4 5 6 7 8 9 10 11 12 13 14 15 16 17 18 19 20 21 22 23 24 25 26 27 28 29 30 31 32 33 34 35 36 37 38 39 40 41 42 43 44 45 46 47 48 49 50

000
ASUS41 KCLE 171212
RWRCLE
OHIO REGIONAL WEATHER ROUNDUP
NATIONAL WEATHER SERVICE WILMINGTON, OH
800 AM EDT TUE OCT 17 2017

NOTE: "FAIR" INDICATES FEW OR NO CLOUDS BELOW 12,000 FEET WITH NO
SIGNIFICANT WEATHER AND/OR OBSTRUCTIONS TO VISIBILITY.

OHZ001>008-015>018-024>027-034-035-043-044-171300-
   NORTHWEST OHIO

CITY           SKY/WX    TMP DP  RH WIND       PRES   REMARKS
DEFIANCE       FAIR      42  36  79 SW6       30.28F
FINDLAY        FAIR      42  36  79 S9        30.29F
TOLEDO EXPRESS FAIR      43  39  86 SW7       30.27S
TOLEDO EXEC    FAIR      44  38  79 SW7       30.28F
LIMA           FAIR      43  37  79 SW6       30.31S
$$

OHZ009>014-019>023-028>033-038-089-171300-
   NORTHEAST OHIO

CITY           SKY/WX    TMP DP  RH WIND       PRES   REMARKS
CLE-HOPKINS    FAIR      45  36  70 S12       30.32S
CLE-LAKEFRONT  FAIR      45  35  68 S13       30.29S
CUY CO. ARPT   CLEAR     48  36  61 S14       30.30S
LORAIN-ELYRIA    N/A    N/A N/A N/A MISG      30.31S
ASHTABULA      FAIR      38  35  89 S6        30.31S
AKRON-CANTON   FAIR      39  33  79 S6        30.33R
WOOSTER        FAIR      37  35  92 SW3       30.33S
MANSFIELD      FAIR      40  36  86 S7        30.32S
YOUNGSTOWN     FAIR      38  32  79 S6        30.32S
$$

OHZ042-051>053-060>062-070>072-077>081-171300-
  SOUTHWEST OHIO

CITY           SKY/WX    TMP DP  RH WIND       PRES   REMARKS
CINC-COVINGTON FAIR      37  37 100 CALM      30.35S
CINC-LUNKEN    CLOUDY    40  40 100 CALM      30.39R FOG
HAMILTON       FOG       35  35 100 CALM      30.38R VSB 3/4
DAYTON         FAIR      42  39  89 SW7       30.35S
WRIGHT-PAT AFB PTCLDY    38  38  99 CALM      30.35S
DAYTON GENERAL FAIR      43  38  82 CALM      30.35R
WILMINGTON     FAIR      41  38  89 CALM      30.36R
$$

OHZ036-037-039>041-045>050-054>059-063>069-073>076-082>088-171300-
  CENTRAL AND SOUTHEAST OHIO

CITY           SKY/WX    TMP DP  RH WIND       PRES   REMARKS
COLUMBUS       FAIR      42  39  89 SE3       30.35S
OSU AIRPORT    FAIR      40  40 100 CALM      30.35S
BOLTON FIELD   CLEAR     36  36 100 CALM      30.36R
RICKENBACK AFB FAIR      37  37 100 S3        30.36S
NEWARK         FAIR      36  33  89 CALM      30.36R
MARION         FAIR      39  36  89 S6        30.33S
LANCASTER      FAIR      35  34  96 CALM      30.36R FOG
ZANESVILLE     FAIR      35  33  92 CALM      30.36R
NEW PHILLY     FOG       37  36  96 SE3       30.36S VSB 1/4
$$




USA.gov is the U.S. government's official web portal to all federal, state and local government web resources and services.